TimeMST,TemperatureF,Dew PointF,Humidity,Sea Level PressureIn,VisibilityMPH,Wind Direction,Wind SpeedMPH,Gust SpeedMPH,PrecipitationIn,Events,Conditions,WindDirDegrees,DateUTC
12:53 AM,6.1,1.0,80,30.53,10.0,Calm,Calm,-,N/A,,Clear,0,2013-01-24 07:53:00
1:53 AM,8.1,3.0,80,30.51,10.0,Calm,Calm,-,N/A,,Clear,0,2013-01-24 08:53:00
2:53 AM,5.0,-0.0,80,30.52,10.0,Calm,Calm,-,N/A,,Clear,0,2013-01-24 09:53:00
3:53 AM,7.0,1.9,80,30.49,10.0,Calm,Calm,-,N/A,,Mostly Cloudy,0,2013-01-24 10:53:00
4:53 AM,9.0,3.0,77,30.52,10.0,Calm,Calm,-,N/A,,Clear,0,2013-01-24 11:53:00
5:53 AM,10.0,5.0,80,30.50,10.0,Calm,Calm,-,N/A,,Partly Cloudy,0,2013-01-24 12:53:00
6:53 AM,14.0,7.0,74,30.49,10.0,Calm,Calm,-,N/A,,Overcast,0,2013-01-24 13:53:00
7:53 AM,18.0,10.0,71,30.53,10.0,SSW,6.9,-,N/A,,Overcast,210,2013-01-24 14:53:00
8:53 AM,18.0,12.9,81,30.51,10.0,Calm,Calm,-,N/A,,Overcast,0,2013-01-24 15:53:00
9:53 AM,23.0,12.9,65,30.48,10.0,Calm,Calm,-,N/A,,Overcast,0,2013-01-24 16:53:00
10:53 AM,26.1,15.1,63,30.50,10.0,Calm,Calm,-,N/A,,Overcast,0,2013-01-24 17:53:00
11:53 AM,28.9,17.1,61,30.46,10.0,Calm,Calm,-,N/A,,Overcast,0,2013-01-24 18:53:00
12:53 PM,30.9,19.0,61,30.43,10.0,Calm,Calm,-,N/A,,Overcast,0,2013-01-24 19:53:00
1:53 PM,39.0,28.9,67,30.36,10.0,WSW,9.2,-,N/A,,Overcast,250,2013-01-24 20:53:00
2:53 PM,37.9,30.0,73,30.38,10.0,SW,11.5,-,N/A,,Overcast,230,2013-01-24 21:53:00
3:53 PM,39.0,30.0,70,30.38,10.0,West,8.1,-,N/A,,Overcast,260,2013-01-24 22:53:00
4:53 PM,37.0,30.9,79,30.39,10.0,SW,6.9,-,N/A,,Overcast,230,2013-01-24 23:53:00
5:31 PM,37.4,30.2,75,30.25,10.0,SW,4.6,-,0.00,Rain,Light Rain,230,2013-01-25 00:31:00
5:53 PM,37.0,30.9,79,30.41,10.0,WSW,5.8,-,0.00,Rain,Light Rain,250,2013-01-25 00:53:00
6:17 PM,35.6,30.2,81,30.27,10.0,SSW,3.5,-,0.00,,Overcast,210,2013-01-25 01:17:00
6:33 PM,35.6,30.2,81,30.27,10.0,ENE,3.5,-,0.00,,Overcast,70,2013-01-25 01:33:00
6:53 PM,35.1,30.9,85,30.41,10.0,Calm,Calm,-,0.00,,Overcast,0,2013-01-25 01:53:00
7:53 PM,35.1,30.9,85,30.39,10.0,NE,3.5,-,N/A,,Overcast,50,2013-01-25 02:53:00
8:53 PM,34.0,30.0,85,30.42,10.0,Calm,Calm,-,N/A,,Overcast,0,2013-01-25 03:53:00
9:53 PM,34.0,30.9,89,30.39,10.0,East,4.6,-,N/A,,Overcast,90,2013-01-25 04:53:00
10:14 PM,33.8,30.2,87,30.28,10.0,Calm,Calm,-,N/A,,Overcast,0,2013-01-25 05:14:00
10:53 PM,33.1,30.0,89,30.39,10.0,NNE,4.6,-,N/A,,Overcast,30,2013-01-25 05:53:00
11:03 PM,33.8,30.2,87,30.30,10.0,Calm,Calm,-,N/A,,Overcast,0,2013-01-25 06:03:00
11:33 PM,33.8,30.2,87,30.31,10.0,Calm,Calm,-,N/A,,Overcast,0,2013-01-25 06:33:00
11:45 PM,33.8,30.2,87,30.30,10.0,Calm,Calm,-,N/A,,Overcast,0,2013-01-25 06:45:00
11:53 PM,34.0,30.0,85,30.37,10.0,Calm,Calm,-,N/A,,Overcast,0,2013-01-25 06:53:00